Regional Weather Roundup
Issued by NWS

Home | Current Version | Previous Version | Graphics & Text | Print | Product List | Glossary Off
Versions: 1 2 3 4 5 6 7 8 9 10 11 12 13 14 15 16 17 18 19 20 21 22 23 24 25 26 27 28 29 30 31 32 33 34 35 36 37 38 39 40 41 42 43 44 45 46 47 48 49 50

000
ASUS43 KMKX 171500
RWRWI

WISCONSIN REGIONAL WEATHER ROUNDUP
NATIONAL WEATHER SERVICE MILWAUKEE/SULLIVAN WI
1000 AM CDT WED SEP 17 2014

NOTE: "FAIR" INDICATES FEW OR NO CLOUDS BELOW 12,000 FEET WITH NO
SIGNIFICANT WEATHER AND/OR OBSTRUCTIONS TO VISIBILITY.

WIZ001-002-006>008-014>016-023>028-171600-
NORTHWEST WISCONSIN

CITY           SKY/WX    TMP DP  RH WIND       PRES   REMARKS
SUPERIOR ARPT  SUNNY     54  47  77 CALM      29.95R
ASHLAND        SUNNY     57  46  66 NE5       29.96R
HAYWARD        SUNNY     58  48  69 VRB5      29.96S
SIREN          SUNNY     60  49  68 W6        29.95S
RICE LAKE      MOSUNNY   53  49  86 CALM      29.98S
LADYSMITH      SUNNY     55  49  79 SW5       29.99S
EAU CLAIRE     NOT AVBL
MENOMONIE      PTSUNNY   56  51  81 SE5       29.98S
NEW RICHMOND   MOSUNNY   60  49  68 SW6       29.96S
OSCEOLA        PTSUNNY   59  53  81 SW3       29.98S
$$

WIZ003>005-009-010-017-018-171600-
NORTH CENTRAL WISCONSIN

CITY           SKY/WX    TMP DP  RH WIND       PRES   REMARKS
WOODRUFF       SUNNY     57  48  73 CALM      29.96S
RHINELANDER    SUNNY     56  46  69 W7        29.97S
EAGLE RIVER    SUNNY     56  43  61 W7        29.96S
LAND O LAKES   MOSUNNY   56  45  65 W3        29.96F
PHILLIPS       SUNNY     55  47  76 SW6       29.96S
TOMAHAWK       MOSUNNY   55  46  73 CALM      29.97F
MEDFORD        MOSUNNY   54  47  77 SW6       29.97F
MERRILL        PTSUNNY   53  47  82 W5        29.98S
$$

WIZ029-030-035-036-043>047-171600-
CENTRAL WISCONSIN

CITY           SKY/WX    TMP DP  RH WIND       PRES   REMARKS
WAUSAU         MOSUNNY   55  47  74 S7        29.97F
MOSINEE        SUNNY     55  52  88 SW7       29.99F
MARSHFIELD     MOSUNNY   57  49  74 SW8       29.98F
STEVENS POINT  PTSUNNY   54  45  72 W6        30.01S
WAUPACA        MOSUNNY   59  50  71 W5        30.00F
WAUTOMA        NOT AVBL
WISC RAPIDS    CLOUDY    55  49  80 VRB5      30.01F
CAMP DOUGLAS   NOT AVBL
$$

WIZ011>013-019>022-031-037>040-048>050-171600-
NORTHEAST WISCONSIN

CITY           SKY/WX    TMP DP  RH WIND       PRES   REMARKS
ANTIGO         MOSUNNY   54  47  75 W8        29.98F
STURGEON BAY   MOSUNNY   59  46  63 W8        29.99S
GREEN BAY      MOSUNNY   59  50  72 SW7       29.99F
MANITOWOC      NOT AVBL
APPLETON       MOSUNNY   55  46  71 W9        30.00F
CLINTONVILLE   MOSUNNY   55  46  71 SW6       29.99F
OSHKOSH        PTSUNNY   60  49  66 VRB6      30.00F
$$

WIZ032>034-041-042-053>061-171600-
SOUTHWEST WISCONSIN

CITY           SKY/WX    TMP DP  RH WIND       PRES   REMARKS
LA CROSSE      PTSUNNY   57  50  77 SE6       30.00S
SPARTA         CLOUDY    52  46  79 CALM      30.01F
VIROQUA        CLOUDY    55  48  76 S3        30.01R
BOSCOBEL       CLOUDY    53  49  86 VRB3      30.02F
PRAIRIE DU CHI PTSUNNY   52  48  85 CALM      30.01F
PLATTEVILLE    FAIR      57  49  74 CALM      30.03S
$$

WIZ056-057-062-063-064-067-068-171600-
SOUTH CENTRAL WISCONSIN

CITY           SKY/WX    TMP DP  RH WIND       PRES   REMARKS
BARABOO/DELLS  CLOUDY    56  46  70 SW6       30.02S
LONE ROCK      NOT AVBL
WATERTOWN      SUNNY     55  48  76 CALM      30.02F
MADISON        PTSUNNY   59  46  62 CALM      30.02F
MIDDLETON      CLOUDY    60  47  64 W5        30.02F
MONROE         SUNNY     59  46  63 CALM      30.02S
JANESVILLE     SUNNY     59  48  67 CALM      30.02F
$$

WIZ051-052-058>065-066-070>072-171600-
SOUTHEAST WISCONSIN

CITY           SKY/WX    TMP DP  RH WIND       PRES   REMARKS
MILWAUKEE      MOSUNNY   61  43  51 W6        30.03F
WAUKESHA       SUNNY     57  46  67 SW3       30.03F
MILWAUKEE/TIMM SUNNY     61  45  55 SW5       30.03F
RACINE         SUNNY     61  46  57 VRB3      30.04F
BURLINGTON     SUNNY     55  49  80 CALM      30.02F
KENOSHA        SUNNY     61  47  59 SW3       30.03F
FOND DU LAC    SUNNY     58  47  66 SW7       30.01F
SHEBOYGAN      SUNNY     62  45  53 W7        30.01F
WEST BEND      SUNNY     59  45  58 SW6       30.02F
JUNEAU         SUNNY     55  48  77 S3        30.03F
$$

LSZ147-162-171600-
LAKE SUPERIOR

STATION/POSITION TIME  TEMP    WIND        PRES    WAVE
                       AIR SEA DIR/SP/G            HT/PER
                 (UTC) (F)     (DEG/KT/KT) (MB)    (FT/S)
W MID LAKE BUOY  1350   46 46   70/ 12/ 14 1014.0S   2/ 4
DEVILS ISLAND    1400   51     190/  8/ 10 1013.7F
PORT WING        1400   53     360/  4/ 22 1014.9R
SAXON HARBOR     1400   55      CALM  /  2 1014.6
$$

LMZ867-665-643>646-171600-
LAKE MICHIGAN

STATION/POSITION TIME  TEMP    WIND        PRES    WAVE
                       AIR SEA DIR/SP/G            HT/PER
                 (UTC) (F)     (DEG/KT/KT) (MB)    (FT/S)
N MID LAKE BUOY  1350   57 58  240/ 14/ 16 1015.0R   2/ 4
NORTHPORT PIER   1400   58     260/  4/ 10 1015.2S
KEWAUNEE LAKESHO 1400   57     260/  6/ 11 1015.0S
SHEBOYGAN LAKESH 1400   56 50  230/  6/  7 1016.8F
PORT WASHINGTON  1400   60     250/  6/  9 1017.3
ATWATER BUOY     1400   57     240/ 10/ 10 1017.9F
MILWAUKEE LAKESH 1400   57     250/  5/  7   N/A
S MID LAKE BUOY  1350   61 65  240/ 10/ 12 1017.2F   1/ 3
KENOSHA   LAKESH 1400   58     270/  5/  7 1016.9F
$$

TC  - TEMPERATURE IN CELSIUS
VSB - VISIBILITY IN STATUTE MILES
WCI - WIND CHILL INDEX
HX  - HEAT INDEX



USA.gov is the U.S. government's official web portal to all federal, state and local government web resources and services.